Wind_Speed
1 1 1 1 1 1 1 1 1 2 2 2 3 3 5 5 5 5 5 6 7 7 8 8 8 9 9 8 8 9 9 10 10 9 9 9 9 10 10 10 10 9 8
1 1 1 1 1 1 2 3 3 2 3 3 3 5 6 6 6 7 7 8 8 9 9 9 9 9 10 9 10 10 9 10 10 10 9 9 9 10 11 11 10 10 9
0 1 1 1 2 2 3 3 2 3 4 4 5 6 7 8 8 8 9 9 9 9 10 10 10 9 10 11 10 10 10 10 10 10 10 10 10 10 11 11 11 10 10
1 1 1 1 2 3 3 3 2 3 4 4 5 7 8 8 9 9 10 10 10 10 10 10 10 10 11 11 10 10 10 11 11 11 11 11 11 11 11 11 11 10 10
1 1 1 2 3 3 4 4 4 4 5 6 7 7 8 9 10 10 10 10 10 11 11 10 10 10 11 11 11 10 11 12 12 12 11 11 12 12 12 11 11 11 12
1 2 3 3 4 4 4 5 5 6 7 7 8 9 10 10 10 11 11 11 11 11 11 11 10 10 11 12 12 11 11 12 12 12 12 12 12 13 12 12 13 13 13
2 2 3 3 4 5 5 6 6 7 8 8 9 9 10 10 10 10 11 11 11 11 11 11 11 11 12 12 12 12 13 13 13 13 13 13 13 13 13 13 14 15 14
4 4 4 4 5 6 7 7 7 8 8 8 9 10 10 10 10 10 11 12 12 12 12 12 12 12 12 13 13 13 12 13 14 14 13 13 13 13 14 15 15 15 15
5 5 5 6 7 8 8 9 9 9 9 10 10 10 11 11 11 11 12 12 12 13 13 13 13 13 13 14 14 14 14 14 14 14 14 14 15 14 14 16 16 16 16
6 6 7 8 8 9 9 9 10 10 10 10 10 11 11 11 12 12 12 13 13 14 14 13 13 14 14 15 14 14 15 15 14 14 15 15 15 15 15 15 16 18 18
7 7 8 8 9 9 9 10 10 11 11 11 11 12 12 13 13 13 13 14 14 14 14 14 14 15 15 15 14 15 15 15 15 15 16 15 15 15 15 15 16 17 19
7 7 7 8 8 8 9 10 11 11 11 12 12 13 13 14 14 14 14 14 14 14 14 14 14 15 15 16 15 15 15 16 16 16 16 16 16 15 16 16 16 17 18
9 9 9 10 10 10 11 12 12 12 12 12 13 13 13 14 14 14 14 15 15 15 15 15 15 14 15 16 16 16 17 17 17 16 16 16 16 16 16 16 17 17 17
10 11 12 12 13 13 13 13 14 14 14 14 13 14 14 14 15 15 15 15 15 15 15 15 16 16 16 16 16 18 18 18 18 18 18 17 17 17 17 17 17 16 17
12 13 14 14 14 14 14 14 14 15 15 14 14 15 15 16 16 16 16 16 16 17 16 17 17 18 18 17 17 18 19 19 19 19 19 19 18 18 18 17 17 17 17
13 14 15 16 16 15 15 16 16 16 16 16 16 16 17 17 17 18 18 18 18 19 18 18 19 20 20 20 20 20 20 19 20 20 20 19 19 19 19 18 18 18 19
15 15 16 16 16 16 16 17 18 18 18 18 18 19 19 19 19 19 19 20 20 20 20 20 20 20 21 21 21 20 20 20 21 20 20 20 20 20 20 20 20 20 21
18 17 17 18 18 18 19 19 19 19 20 20 20 20 20 21 21 21 22 22 22 22 22 21 21 22 22 22 23 23 22 22 22 22 22 21 20 21 21 21 22 22 23
19 19 19 20 20 21 21 21 20 21 21 21 21 21 22 23 23 23 24 23 23 23 23 23 23 23 24 24 25 25 25 24 24 23 23 22 22 22 22 23 23 23 24
21 21 21 22 22 23 23 23 22 22 22 23 23 23 24 24 24 25 25 25 25 25 25 25 25 25 26 26 26 26 26 25 25 24 24 24 24 24 24 24 24 25 25
23 24 24 24 24 24 24 24 24 24 24 24 24 25 25 26 26 26 27 27 27 27 27 26 26 26 27 27 27 27 27 27 26 26 26 26 26 26 26 26 26 26 26
25 25 26 26 26 25 25 25 25 26 26 26 26 26 27 27 27 27 27 28 28 28 29 29 29 29 29 29 29 28 28 28 27 27 27 28 28 27 28 28 28 28 27
27 27 27 27 27 27 27 27 27 27 28 28 28 28 29 29 29 29 29 29 29 29 30 30 31 30 30 30 30 29 29 29 29 29 29 29 29 29 29 29 29 29 29
29 29 29 29 29 29 29 29 29 29 30 30 30 30 30 29 29 29 29 30 30 30 31 31 31 31 32 32 31 31 31 30 30 30 30 30 30 30 30 30 30 29 29
30 29 29 29 30 30 30 31 31 31 31 31 32 32 31 31 31 31 31 31 31 31 31 31 31 32 32 32 32 32 32 31 31 31 32 32 32 32 32 31 31 30 30
31 31 30 30 30 31 31 32 32 32 32 32 32 32 32 32 32 32 33 32 32 31 31 31 31 31 32 32 33 33 32 32 31 31 32 32 32 32 32 31 32 31 31
Wind_Direction
145 145 152 111 71 13 343 349 328 314 310 308 306 310 311 308 308 311 314 312 311 308 303 299 299 298 296 294 291 283 278 278 277 276 278 273 265 260 260 265 265 264 265
161 230 255 251 247 292 315 311 319 309 306 306 295 300 306 306 304 303 307 307 306 306 302 298 297 299 299 294 294 293 288 289 287 279 276 269 269 264 259 262 263 261 262
148 261 283 289 290 319 326 325 321 323 312 301 296 302 305 305 307 308 308 307 304 304 303 300 300 298 299 296 294 293 290 290 288 287 279 270 266 265 262 260 260 262 261
47 308 293 299 307 315 316 317 317 322 324 314 303 303 308 307 303 303 304 304 304 305 303 301 298 294 298 294 293 295 290 289 290 288 285 275 268 264 263 259 258 258 259
346 295 310 309 314 317 315 311 312 321 325 322 313 308 307 303 302 301 303 302 303 305 303 302 300 297 299 295 294 293 289 287 288 288 287 282 271 264 263 260 256 256 256
320 304 312 314 312 316 314 318 324 322 321 318 314 311 309 306 305 304 305 304 303 303 302 300 299 295 294 295 293 293 290 290 289 288 287 282 276 268 265 261 256 256 256
305 288 296 309 311 320 315 315 317 317 315 316 316 314 313 311 310 307 305 304 301 301 301 299 296 295 295 290 289 290 289 289 289 288 284 280 279 273 268 261 259 258 257
306 290 295 308 310 319 322 314 314 316 315 315 314 313 314 311 310 307 306 305 303 302 303 301 296 293 291 288 286 288 290 289 289 288 285 282 280 276 272 266 262 259 258
307 295 296 300 305 310 312 313 319 314 312 311 309 308 308 308 304 302 302 303 304 305 305 302 297 294 294 291 288 289 290 290 289 287 285 284 280 275 272 268 265 261 260
300 293 298 302 308 311 310 307 313 311 307 305 305 305 303 302 302 300 299 301 302 304 305 302 300 295 291 289 291 290 289 290 290 287 286 285 281 277 274 272 269 266 264
310 307 308 306 309 312 306 308 310 312 308 305 304 302 303 303 302 300 298 299 300 300 302 301 298 294 289 288 289 289 289 291 290 286 284 285 282 278 276 274 274 273 267
319 319 318 316 316 316 316 317 314 313 308 305 304 303 303 304 303 301 299 299 298 297 298 299 297 295 290 289 288 288 289 291 289 287 285 285 284 281 280 277 276 275 272
314 316 318 315 311 309 312 314 312 310 308 305 305 306 306 306 307 305 302 299 298 296 295 294 294 293 292 291 290 290 291 290 288 287 286 286 283 280 281 280 279 277 274
309 311 312 312 309 306 308 308 307 306 304 303 302 303 304 305 305 305 304 300 297 297 296 296 294 293 292 291 292 292 291 289 287 287 286 286 284 280 280 279 278 278 277
305 310 310 310 308 306 307 307 304 303 302 301 300 301 303 303 302 301 301 301 299 297 294 293 291 292 292 292 293 293 292 290 287 286 287 285 285 281 280 279 278 278 279
302 303 305 305 307 304 304 305 303 300 299 298 297 297 299 299 299 300 300 300 299 297 296 293 291 291 291 291 291 290 289 287 285 285 286 284 282 282 279 278 277 277 276
301 301 301 302 303 301 300 301 300 298 297 297 297 297 297 296 297 298 298 298 297 295 295 294 292 291 291 291 290 289 287 287 287 284 283 282 280 280 279 278 277 276 275
298 298 299 300 300 300 299 299 298 295 295 296 297 297 297 295 295 295 295 295 295 295 294 292 292 291 290 290 292 291 290 288 287 284 281 280 281 280 279 278 278 277 276
298 298 298 299 298 297 297 297 296 294 293 294 295 296 296 295 294 294 293 294 294 293 292 292 291 291 290 289 290 290 289 288 286 283 280 279 279 279 279 278 277 277 277
297 297 296 297 297 296 296 295 294 294 293 293 294 295 295 294 293 292 292 292 292 292 290 290 290 290 290 289 290 289 288 288 286 282 279 279 278 277 276 276 277 277 277
295 294 294 295 295 295 295 294 294 293 292 292 293 293 293 292 291 290 290 290 290 290 289 289 289 289 289 290 290 288 287 288 286 283 280 279 278 276 275 275 276 278 277
294 293 293 293 293 293 293 293 293 292 292 291 291 292 292 294 291 290 291 290 288 288 288 289 289 288 287 288 289 286 285 285 285 282 280 279 278 277 276 276 277 277 277
292 293 294 294 294 295 294 291 291 291 291 290 291 292 293 292 291 290 289 289 289 288 289 288 288 287 286 286 286 285 284 283 283 282 280 279 278 276 274 275 276 278 277
292 292 294 294 293 294 294 294 291 291 292 292 292 292 291 290 290 289 289 289 289 288 289 288 287 287 286 286 285 284 284 283 281 281 279 279 278 276 275 275 276 277 276
291 291 293 292 293 293 293 292 291 290 291 292 292 291 289 288 288 288 288 289 288 287 288 288 287 286 285 285 286 284 283 282 282 281 279 277 277 276 275 274 276 276 276
288 290 291 291 291 292 292 292 290 290 290 290 291 291 288 287 287 288 288 288 288 287 287 287 288 287 285 285 285 283 282 282 282 281 280 278 276 276 275 273 274 275 276
Height
5907 5907 5907 5907 5907 5907 5906 5906 5906 5905 5905 5905 5904 5903 5903 5902 5901 5900 5900 5899 5898 5897 5896 5895 5894 5893 5892 5891 5890 5889 5889 5889 5888 5888 5888 5887 5888 5888 5888 5888 5888 5888 5888
5907 5907 5907 5907 5907 5906 5906 5905 5905 5905 5904 5904 5903 5902 5902 5901 5900 5899 5898 5897 5896 5895 5895 5894 5892 5891 5890 5889 5888 5887 5887 5886 5886 5885 5885 5885 5885 5885 5885 5885 5886 5886 5886
5907 5907 5907 5907 5906 5906 5905 5904 5904 5904 5903 5903 5902 5901 5900 5900 5899 5898 5897 5896 5895 5894 5893 5892 5891 5890 5888 5887 5886 5885 5885 5884 5883 5883 5882 5882 5882 5882 5883 5883 5883 5883 5884
5907 5907 5907 5906 5906 5905 5905 5904 5903 5903 5902 5902 5901 5900 5899 5898 5897 5896 5895 5894 5893 5892 5891 5890 5889 5888 5887 5885 5884 5883 5882 5882 5881 5880 5880 5879 5880 5880 5880 5880 5880 5881 5881
5907 5907 5907 5906 5905 5905 5904 5903 5902 5902 5901 5900 5900 5899 5898 5896 5895 5894 5893 5892 5891 5890 5889 5888 5887 5886 5884 5883 5882 5881 5880 5879 5878 5878 5877 5877 5877 5876 5877 5877 5877 5878 5878
5907 5906 5906 5905 5904 5904 5903 5903 5901 5901 5900 5899 5898 5897 5896 5895 5893 5892 5891 5890 5889 5888 5887 5886 5884 5883 5882 5881 5879 5878 5877 5876 5875 5875 5874 5873 5873 5873 5873 5873 5874 5874 5875
5907 5906 5906 5905 5904 5903 5902 5902 5900 5899 5898 5897 5896 5895 5894 5892 5891 5890 5889 5888 5887 5885 5884 5883 5881 5880 5879 5878 5876 5875 5874 5873 5873 5872 5871 5870 5870 5869 5869 5869 5870 5871 5871
5906 5905 5905 5904 5903 5902 5901 5900 5899 5898 5896 5895 5895 5894 5893 5892 5889 5888 5887 5885 5884 5883 5881 5880 5879 5877 5876 5875 5874 5872 5871 5870 5869 5868 5867 5867 5866 5866 5865 5866 5866 5867 5867
5905 5905 5904 5903 5902 5901 5900 5899 5898 5896 5895 5894 5893 5892 5890 5889 5888 5886 5884 5883 5881 5880 5878 5877 5876 5874 5873 5871 5870 5869 5868 5867 5866 5865 5864 5863 5863 5862 5862 5862 5862 5863 5863
5905 5904 5903 5902 5900 5899 5898 5897 5896 5894 5893 5892 5890 5889 5888 5886 5885 5884 5882 5880 5878 5877 5875 5874 5872 5871 5869 5868 5867 5866 5865 5863 5863 5862 5860 5859 5859 5859 5858 5858 5858 5858 5859
5904 5903 5901 5900 5899 5897 5896 5895 5893 5892 5890 5889 5888 5887 5885 5884 5882 5881 5879 5877 5875 5874 5872 5870 5869 5867 5865 5864 5863 5862 5861 5860 5859 5858 5857 5856 5855 5855 5854 5854 5854 5854 5854
5902 5901 5900 5898 5897 5896 5894 5893 5891 5889 5888 5886 5885 5884 5882 5881 5879 5877 5876 5874 5872 5870 5868 5867 5865 5863 5861 5860 5859 5858 5857 5856 5855 5854 5853 5852 5851 5851 5850 5850 5850 5850 5849
5900 5899 5898 5897 5895 5894 5892 5890 5888 5887 5885 5884 5882 5881 5879 5878 5876 5874 5872 5870 5869 5867 5865 5863 5861 5859 5858 5856 5855 5854 5853 5852 5851 5850 5849 5848 5847 5846 5846 5846 5845 5845 5845
5898 5897 5896 5894 5893 5891 5889 5887 5885 5884 5882 5881 5879 5878 5876 5874 5872 5870 5869 5867 5865 5863 5861 5860 5857 5855 5854 5852 5851 5849 5848 5847 5846 5845 5844 5844 5843 5842 5841 5841 5841 5840 5840
5896 5894 5893 5891 5890 5888 5886 5884 5882 5880 5879 5877 5876 5874 5872 5870 5868 5866 5864 5862 5861 5859 5857 5856 5854 5851 5850 5848 5847 5845 5844 5842 5841 5840 5839 5838 5838 5837 5836 5836 5836 5835 5835
5893 5891 5890 5888 5886 5884 5882 5880 5878 5877 5875 5873 5871 5870 5868 5866 5864 5862 5860 5858 5856 5854 5853 5851 5849 5847 5845 5844 5842 5840 5838 5837 5836 5835 5834 5833 5832 5832 5831 5831 5831 5830 5830
5890 5888 5886 5884 5882 5880 5878 5876 5874 5873 5871 5869 5867 5865 5863 5861 5859 5857 5855 5853 5851 5849 5847 5846 5844 5842 5840 5838 5836 5834 5833 5831 5830 5829 5828 5827 5826 5826 5826 5825 5825 5825 5824
5886 5884 5882 5880 5878 5876 5874 5872 5870 5868 5866 5864 5862 5860 5858 5856 5854 5852 5850 5848 5846 5844 5842 5840 5838 5836 5834 5833 5831 5829 5827 5825 5824 5823 5822 5821 5820 5820 5820 5819 5819 5818 5818
5881 5879 5877 5875 5873 5871 5869 5867 5865 5863 5860 5858 5856 5854 5852 5850 5848 5846 5844 5842 5840 5838 5836 5834 5832 5830 5828 5826 5824 5823 5821 5819 5817 5816 5815 5815 5814 5814 5813 5813 5812 5812 5811
5876 5874 5872 5870 5868 5866 5864 5861 5859 5857 5854 5852 5850 5848 5846 5844 5841 5839 5837 5835 5833 5831 5829 5827 5826 5824 5822 5819 5817 5815 5814 5812 5811 5810 5809 5808 5807 5807 5806 5806 5805 5805 5804
5870 5868 5866 5864 5862 5860 5857 5855 5853 5850 5848 5846 5844 5841 5839 5837 5834 5832 5830 5828 5826 5824 5822 5820 5819 5817 5815 5813 5810 5808 5806 5805 5804 5802 5801 5801 5800 5800 5799 5798 5798 5797 5797
5864 5862 5860 5858 5855 5853 5851 5848 5846 5844 5841 5839 5837 5834 5832 5830 5827 5825 5823 5821 5819 5817 5815 5813 5811 5809 5808 5805 5802 5800 5799 5798 5796 5795 5793 5793 5792 5791 5791 5791 5790 5790 5789
5857 5855 5853 5851 5849 5846 5844 5841 5839 5836 5834 5832 5829 5827 5824 5822 5819 5817 5815 5813 5811 5809 5807 5804 5802 5801 5799 5797 5794 5793 5791 5790 5788 5786 5785 5784 5784 5783 5782 5782 5782 5781 5781
5850 5848 5846 5843 5841 5839 5836 5833 5831 5828 5826 5824 5821 5819 5816 5814 5811 5809 5807 5805 5803 5800 5798 5796 5794 5792 5790 5788 5786 5784 5782 5781 5780 5778 5777 5776 5775 5774 5773 5773 5773 5773 5772
5842 5840 5838 5835 5833 5831 5828 5826 5823 5821 5818 5816 5813 5811 5808 5805 5803 5801 5798 5796 5794 5792 5789 5787 5785 5783 5781 5779 5777 5775 5773 5772 5771 5770 5768 5767 5766 5765 5765 5765 5764 5764 5764
5834 5831 5829 5827 5825 5822 5820 5817 5815 5812 5810 5808 5805 5802 5799 5797 5794 5792 5789 5787 5785 5783 5780 5778 5776 5774 5772 5770 5767 5765 5763 5762 5762 5761 5759 5758 5757 5756 5756 5756 5755 5755 5754